This is the latest recevied weather packets stored in our database for station/object N2QKV-13. If no packets are shown the sender has not sent any weather packets the latest 10 day(s).
| Time | Temp. | Humidity | Pressure | Rain* | Wind** | Luminosity | Snow |
|---|---|---|---|---|---|---|---|
| 1778265604 | 19.44° C | 34% | 1011.7 hPa | 0 mm | - | - | - |
| 1778265304 | 20° C | 33% | 1011.7 hPa | 0 mm | - | - | - |
| 1778265003 | 19.44° C | 34% | 1011.9 hPa | 0 mm | - | - | - |
| 1778264703 | 19.44° C | 34% | 1011.8 hPa | 0 mm | - | - | - |
| 1778264403 | 20° C | 36% | 1011.8 hPa | 0 mm | - | - | - |
| 1778264103 | 19.44° C | 34% | 1011.9 hPa | 0 mm | - | - | - |
| 1778263804 | 19.44° C | 35% | 1011.9 hPa | 0 mm | - | - | - |
| 1778263504 | 20° C | 33% | 1011.9 hPa | 0 mm | - | - | - |
| 1778263204 | 20.56° C | 32% | 1011.7 hPa | 0 mm | - | - | - |
| 1778262903 | 20.56° C | 35% | 1011.7 hPa | 0 mm | - | - | - |
| 1778262603 | 20° C | 34% | 1011.7 hPa | 0 mm | - | - | - |
| 1778262303 | 20° C | 36% | 1011.7 hPa | 0 mm | - | - | - |
| 1778262004 | 20° C | 35% | 1011.7 hPa | 0 mm | - | - | - |
| 1778261704 | 20° C | 35% | 1011.8 hPa | 0 mm | - | - | - |
| 1778261404 | 20° C | 35% | 1011.7 hPa | 0 mm | - | - | - |
| 1778261103 | 19.44° C | 34% | 1011.9 hPa | 0 mm | - | - | - |
| 1778260804 | 19.44° C | 35% | 1011.9 hPa | 0 mm | - | - | - |
| 1778260504 | 19.44° C | 36% | 1011.9 hPa | 0 mm | - | - | - |
| 1778260204 | 19.44° C | 36% | 1012.1 hPa | 0 mm | - | - | - |
| 1778259903 | 18.89° C | 36% | 1012.1 hPa | 0 mm | - | - | - |
| 1778259603 | 18.89° C | 37% | 1012 hPa | 0 mm | - | - | - |
| 1778259304 | 18.89° C | 38% | 1012.2 hPa | 0 mm | - | - | - |
| 1778259004 | 18.89° C | 38% | 1012.4 hPa | 0 mm | - | - | - |
| 1778258703 | 17.78° C | 39% | 1012.4 hPa | 0 mm | - | - | - |
| 1778258403 | 18.33° C | 36% | 1012.5 hPa | 0 mm | - | - | - |
* Rain latest hour (hover to see other rain measurements)
** Current wind speed in m/s (hover to see current wind gust speed)